一网星座-0360星 (ONEWEB-0360 )

导读

ONEWEB-0360是英国OneWeb低轨卫星互联网星座的一员,由英国OneWeb Satellites(OneWeb与空客合资企业)制造,于2021年10月14日发射。它单颗重约147.5公斤,配备Ku波段天线,运行在近地轨道,为OneWeb构建覆盖全球的高速卫星互联网提供支撑,可满足偏远地区网络接入、应急通信等需求,设计上计划服役后25年安全脱轨。作为OneWeb星座部署的组成部分,它助力该星座实现全球低延迟宽带覆盖,兼具商业及潜在应用价值。

基本信息
目录编号:
49286
目录名称:
ONEWEB-0360
国际标识:
2021-090H
轨道中心:
EARTH
卫星名称:
一网星座-0360星
卫星全名:
一网星座-0360星 (ONEWEB-0360 )
卫星状态:
在轨 (已飞行1797 天)
发射日期:
2021-10-14 UTC
国别 :
英国 (GB)
星等 :
--
该卫星已列入 空间交会检测服务 Space Conjunction Data Service (SCDS) ,当前飞行风险评估等级: 无高风险
轨道信息
数据来源 国际轨道数据 AOE轨道数据
星历时间 2026-09-15T19:16:02+0800
11小时前
查看轨道信息
2026-09-15T07:00:00+0800
23小时前
查看轨道信息
半长轴 7559.909km 7559.907km
偏心率 0.000187 0.0002036
轨道倾角 87.914° 87.915°
近地点辐角 88.588° 80.089°
升交点赤经 256.431° 256.532°
平近点角 271.547° 11.092°
近地点 1180.358km 1180.23km
远地点 1183.186km 1183.31km
周期 109.027分钟 109.027分钟
每日圈数 13.207722 13.207727
详细信息
平衡模式:
三轴稳定
覆盖范围:
全球
运营商:
一网卫星公司
运营商所在国:
英国
制造商(研发单位):
一网卫星公司
制造商所在国:
英国
使用方式:
暂无
卫星简介
OneWeb卫星网络由648颗重约125公斤的微型卫星组成,运行在1200公里的轨道上。 每颗卫星都能够提供至少每秒8千兆位的吞吐量,以使用其高吞吐量的Ku频段有效载荷为家庭和移动平台提供互联网接入。该卫星仍在工作。
2D轨道图
3D轨道图
轨道高度分析图
轨道倾角分析图
轨道综合分析图
查看轨道综合分析图
与全量物体交会距离演化趋势 订阅飞行安全评估服务
与全量物体交会风险概率演化趋势 订阅飞行安全评估服务